Location: Isola
(44.4333°N, 10.1667°E)
Time: 14:39:01
(UTC+00:00)

Daily predictions for brighter satellites

Satellite Brightness Start Highest point End
(mag) Time Altitude Azimuth Time Altitude Azimuth Time Altitude Azimuth
CSL-04 Rocket 4.4 18:57:30 10° S 19:02:41 55° W 19:07:58 10° NNW
ATLAS 5 CENTAUR R/B 2.8 18:57:41 10° NNW 19:03:07 53° NE 19:09:29 10° SE
MOS 1-B Rocket 4.4 18:56:08 10° NNE 19:03:29 62° E 19:09:42 10° S
MetOp-A 4.4 18:58:55 10° S 19:04:16 79° WSW 19:09:40 10° NNW
DELTA 2 R/B (1) 4.2 19:02:30 10° W 19:07:45 43° SSW 19:12:58 10° SE
Cosmos 1503 Rocket 4.3 19:03:13 10° S 19:08:03 43° ESE 19:12:58 10° NNE
Cosmos 2221 3.8 19:06:39 10° SSW 19:10:47 45° WNW 19:14:59 10° N
Cosmos 1743 Rocket 3.8 19:06:52 10° NNW 19:11:13 75° W 19:15:34 10° S
Cosmos 1844 3.7 19:09:02 10° SSW 19:14:45 79° ESE 19:20:27 10° NNE
BREEZE-M DEB (TANK) 3.4 19:13:28 10° W 19:15:23 24° SSW 19:17:53 10° SSE
Ariane Rocket 3.0 19:12:19 10° SSE 19:17:19 69° ENE 19:22:22 10° N
Cosmos 1833 Rocket 4.1 19:15:48 10° N 19:20:25 25° NE 19:25:01 10° ESE
SL-4 R/B 3.5 19:17:17 10° WNW 19:21:09 32° SW 19:25:15 10° SSE
Resurs 1-3 3.7 19:17:15 10° SSE 19:21:35 66° ENE 19:25:57 10° N
Cosmos 1500 Rocket 4.3 19:17:43 10° NNW 19:22:02 56° W 19:26:16 10° S
Cosmos 1745 Rocket 4.0 19:17:03 10° N 19:23:15 72° E 19:29:23 10° SSE
Cosmos 1709 Rocket 4.4 19:19:46 10° N 19:25:36 44° ENE 19:31:23 10° SSE
BREEZE-M DEB (TANK) 3.9 19:25:28 10° WNW 19:29:44 88° SSW 19:38:00 10° ESE
Cosmos 1666 Rocket 4.0 19:26:51 10° N 19:31:04 44° ENE 19:35:00 11° SSE
Cosmos 1437 4.0 19:33:32 15° SE 19:34:44 19° E 19:36:51 10° NE
NOSS 3-3 (A) 3.9 19:32:25 10° SSW 19:37:56 55° ESE 19:44:09 10° NE
NOSS 3-3 (C) 3.9 19:32:32 10° SSW 19:38:02 55° ESE 19:44:16 10° NE
CZ-2C R/B 4.4 19:34:19 10° NNE 19:38:24 33° E 19:42:30 10° SSE
Intercosmos 24 3.6 19:36:51 10° S 19:40:36 89° WNW 19:44:12 10° N
Cosmos 1354 Rocket 3.9 19:35:56 10° SSW 19:41:07 73° ESE 19:46:23 10° NNE
ATLAS 2AS CENTAUR R/B 4.4 19:36:06 10° NNW 19:42:08 25° NNE 19:47:50 10° E
S3M 4.1 19:36:38 10° S 19:43:01 85° W 19:49:24 10° N
USA 245 4.2 19:43:37 13° E 19:44:00 13° ENE 19:45:12 10° NE
SJ 16-02 2.9 19:42:36 15° ESE 19:44:04 17° E 19:46:57 10° NE
Sich 1 3.2 19:40:55 10° NNW 19:45:16 77° W 19:49:38 10° S
OBJECT-B 2.9 19:43:06 10° SSW 19:45:53 26° W 19:48:42 10° NW
Meteor 1-26 Rocket 4.2 19:41:19 10° S 19:46:55 62° E 19:52:22 10° NNE
SPOT 1/Viking Rocket 4.2 19:42:57 14° SE 19:46:59 41° ENE 19:51:51 10° N
USA 308 4.4 19:44:36 10° NW 19:48:28 31° NNE 19:52:20 10° E
Cosmos 2315 Rocket 4.1 19:42:32 10° S 19:48:46 59° E 19:55:02 10° NNE
Cosmos 1500 3.9 19:50:43 10° N 19:54:12 36° ENE 19:56:07 21° SE
Terra 3.6 19:54:08 12° E 19:56:40 18° ENE 19:59:47 10° NNE
BREEZE M DEB (TANK) 3.4 19:52:09 10° WNW 19:57:25 39° N 19:59:41 11° ENE
Meteor 1-14 Rocket 4.5 19:54:23 10° N 20:00:10 57° ENE 20:04:21 18° SSE
Cosmos 2082 Rocket 3.6 19:55:36 10° N 20:00:17 26° NE 20:03:59 14° E
Cosmos 1151 Rocket 3.0 19:57:05 10° S 20:01:25 78° E 20:05:49 10° N
SPOT 3 Rocket 3.5 19:56:54 13° SSE 20:01:31 88° ENE 20:06:42 10° NNW
OE (NEXTSAT) 4.3 19:58:34 10° WNW 20:02:03 88° NNE 20:04:07 23° ESE
SPOT 5 4.2 19:59:19 17° ESE 20:02:17 29° ENE 20:06:45 10° N
X-37B 0.9 20:00:18 10° W 20:03:25 52° SSW 20:04:43 29° SE
CREW DRAGON DEMO-1 DEB 4.3 20:01:22 10° NW 20:03:40 26° NNE 20:05:17 15° ENE
Resurs 01 Rocket 1.8 20:02:15 13° S 20:06:13 73° WSW 20:10:40 10° NNW
Cosmos 2084 3.3 20:02:11 10° SW 20:06:18 89° SSE 20:10:34 10° NE
COSMOS 2406 3.6 20:01:26 10° NNW 20:06:58 51° ENE 20:10:34 21° SE
USA 290 4.1 20:06:11 10° NW 20:08:58 27° WSW 20:11:34 11° SSW
Meteor 2-6 Rocket 4.4 20:12:08 19° SSE 20:15:42 48° E 20:20:59 10° NNE
Cosmos 1538 Rocket 4.5 20:10:38 10° NNW 20:15:52 50° ENE 20:18:46 24° SE
Cosmos 773 Rocket 4.0 20:13:57 10° NNW 20:19:17 85° WSW 20:22:41 23° SSE
MetOp-B 4.2 20:15:10 18° SSE 20:19:17 84° WSW 20:24:41 10° NNW
Cosmos 1271 Rocket 3.7 20:19:15 28° ESE 20:19:59 30° E 20:23:30 10° NNE
Cosmos 2278 Rocket 2.2 20:18:43 10° S 20:24:17 62° ESE 20:29:53 10° NNE
Spot 2 Rocket 3.5 20:22:06 26° SSE 20:24:57 67° ENE 20:29:58 10° N
Landsat 7 4.2 20:23:02 17° S 20:26:40 60° W 20:31:23 10° NNW
Cosmos 1782 3.6 20:22:57 10° SSW 20:26:51 51° WNW 20:30:45 10° N
BREEZE-M DEB (TANK) 3.0 20:25:10 10° NW 20:27:02 26° N 20:27:56 19° NE
IGS 5A 4.3 20:24:31 15° SSW 20:27:40 46° W 20:31:41 10° NNW
USA 305 3.5 20:24:58 10° NW 20:29:08 49° NNE 20:31:23 24° E
GPS 2-04 Rocket1 4.2 20:26:08 10° SW 20:28:42 22° S 20:28:42 22° S
Cosmos 1943 Rocket 4.1 20:32:27 12° E 20:32:27 12° E 20:34:01 10° ENE
Cosmos 1515 Rocket 3.5 20:29:37 25° S 20:32:08 74° E 20:36:32 10° NNE
ERS-1 Rocket 3.3 20:30:20 29° SE 20:32:36 52° ENE 20:37:29 10° N
BREEZE-M DEB (TANK) 3.8 20:28:11 10° WNW 20:34:33 34° SW 20:35:39 27° SSW
CZ-4C R/B 3.0 20:31:20 10° NW 20:38:41 86° SW 20:43:47 27° SSE
Cosmos 1633 Rocket 4.2 20:36:19 10° NNW 20:40:26 40° W 20:43:37 16° SSW
Meteor 1-11 Rocket 4.1 20:39:36 10° N 20:45:26 53° ENE 20:47:54 33° SE
deb Kosmos-1763 3.8 20:43:55 10° NNW 20:47:28 82° ENE 20:47:57 64° SE
ATLAS 5 CENTAUR R/B 3.6 20:42:30 10° NW 20:47:45 34° WSW 20:51:47 18° S
USA 306 3.1 20:44:16 10° NW 20:48:31 63° NNE 20:49:58 38° E
Cosmos 1812 3.1 20:47:18 26° SSW 20:49:17 63° W 20:53:08 10° N
Cosmos 1470 Rocket 4.2 20:48:25 10° NNW 20:52:48 53° W 20:55:00 27° SSW
ARIANE 5 R/B 2.7 20:52:22 36° S 20:54:00 68° WSW 20:58:20 10° NNW
Cosmos 1340 Rocket 4.2 20:51:48 10° NNE 20:55:13 25° ENE 20:55:28 25° ENE
CARTOSAT-1 3.7 20:56:42 38° S 20:58:12 66° W 21:02:30 10° NNW
Cosmos 1666 2.7 20:56:07 10° NNW 20:59:50 71° W 21:00:28 56° SSW
Meteor 2-12 Rocket 4.4 20:56:59 10° N 21:03:02 70° E 21:05:22 39° SSE
Cosmos 1833 Rocket 3.0 20:59:12 10° NNW 21:04:46 59° WSW 21:07:04 34° S
Meteor 1-5 Rocket 4.5 21:00:35 10° NNW 21:05:51 58° W 21:08:22 29° SSW
SL-24 DEB 4.3 21:05:35 50° SE 21:06:26 60° E 21:10:58 10° N
BREEZE-M R/B 3.9 21:04:49 10° WNW 21:06:58 26° N 21:07:49 22° NNE
Cosmos 1933 Rocket 4.0 21:02:47 10° NNW 21:07:03 56° W 21:08:26 38° SSW
Cosmos 2154 Rocket 4.0 21:01:01 10° N 21:07:20 68° E 21:09:43 39° SSE
Cosmos 1898 Rocket 4.0 21:07:15 38° ESE 21:07:32 38° ESE 21:12:27 10° NE
Meteor 1-10 Rocket 4.2 21:05:30 27° SSW 21:08:40 80° W 21:14:22 10° N
Cosmos 923 Rocket 4.2 21:03:31 10° NNW 21:08:45 62° ENE 21:10:12 45° SE
Cosmos 1536 3.0 21:06:26 10° N 21:10:26 55° E 21:10:33 55° E
Cosmos 2184 Rocket 4.0 21:08:32 10° NNW 21:14:45 75° W 21:17:33 34° S
Cosmos 1743 3.9 21:11:18 10° N 21:14:28 31° ENE 21:14:28 31° ENE
USA 307 2.7 21:10:53 10° NW 21:15:10 89° NE 21:15:37 71° ESE
H-2A R/B 3.3 21:13:39 10° NNE 21:17:51 84° ESE 21:18:18 70° S
Cosmos 2074 Rocket 4.2 21:13:00 10° NNW 21:19:15 67° W 21:22:14 32° SSW
NOSS 3-4 (A) 3.8 21:13:48 10° NW 21:20:52 87° SW 21:24:06 39° SSE
Cosmos 990 Rocket 4.0 21:20:01 53° SSE 21:20:53 62° ESE 21:26:06 10° NNE
NOSS 3-4 (C) 3.8 21:13:54 10° NW 21:20:58 87° SW 21:24:12 39° SSE
SJ 16-02 2.2 21:19:29 21° SW 21:22:13 48° WNW 21:26:32 10° N
Nadezhda 1 Rocket 3.9 21:19:51 37° S 21:22:37 87° E 21:28:53 10° N
Cosmos 2297 3.9 21:22:45 46° ESE 21:23:15 47° ESE 21:28:40 10° NE
Cosmos 1733 Rocket 4.0 21:24:00 10° N 21:27:49 33° ENE 21:27:49 33° ENE
USA 308 2.8 21:24:29 10° WNW 21:28:43 74° SW 21:28:43 74° SW
Terra 2.1 21:33:01 50° SSW 21:33:56 60° W 21:38:40 10° NNW
ATLAS 2AS CENTAUR R/B 2.8 21:27:03 10° NW 21:34:27 72° NE 21:37:05 41° ESE
Cosmos 1544 3.5 21:34:05 10° N 21:37:03 57° N 21:37:03 57° N
SPOT 5 4.0 21:38:33 31° SW 21:40:08 40° W 21:45:05 10° NNW
Cosmos 2082 Rocket 2.5 21:39:14 10° NNW 21:44:42 55° WSW 21:45:50 46° SSW
Cosmos 2181 Rocket 4.2 21:44:37 45° ESE 21:45:31 49° E 21:51:23 10° NNE
Cosmos 2228 Rocket 4.1 21:45:34 34° WSW 21:46:46 42° WNW 21:51:01 10° N
Cosmos 2112 Rocket 3.9 21:42:04 10° NNW 21:47:28 86° ENE 21:48:11 68° SSE
Cosmos 967 Rocket 4.3 21:49:31 52° S 21:51:01 73° ESE 21:57:17 10° NE
Cosmos 44 3.5 21:45:48 10° NNW 21:51:15 72° NE 21:51:59 62° ESE
Cosmos 2366 rocket 4.3 21:48:44 10° N 21:54:46 52° ENE 21:55:56 46° ESE
Spot 4 4.3 21:55:19 49° E 21:55:35 49° ENE 22:00:16 10° N
Cosmos 2084 Rocket 4.0 21:55:03 10° NNW 21:59:14 52° NE 21:59:14 52° NE
Cosmos 2341 Rocket 4.0 21:56:16 10° N 22:02:42 89° W 22:04:08 58° S
Cosmos 2278 Rocket 4.3 22:04:18 10° WSW 22:08:49 24° NW 22:13:22 10° N
Cosmos 1937 Rocket 3.3 22:09:31 77° SW 22:09:53 85° WNW 22:15:05 10° NNE
Cosmos 1862 Rocket 3.9 22:10:39 60° NNE 22:10:39 60° NNE 22:14:18 10° NNE
Milstar 3 4.5 22:04:02 10° WSW 22:10:46 25° SSW 22:10:46 25° SSW
SL-24 R/B - RUBIN 2 3.8 22:07:48 10° NW 22:13:07 77° WSW 22:13:07 77° WSW
Cosmos 1680 Rocket 4.0 22:09:24 10° NNW 22:14:31 48° WSW 22:14:52 47° WSW
Cosmos 1943 Rocket 2.0 22:13:55 72° SSW 22:14:32 88° ESE 22:20:11 10° NNE
Cosmos 2369 Rocket 2.5 22:17:10 48° E 22:17:10 48° E 22:22:08 10° NE
Cosmos 2218 Rocket 3.9 22:10:54 10° N 22:17:13 79° E 22:18:16 63° SSE
Meteor 1-19 Rocket 3.9 22:19:24 81° SSE 22:19:41 86° E 22:25:06 10° NNE
Centaur D AC-29 4.4 21:45:47 10° WSW 22:20:12 31° SSW 22:20:13 31° SSW
Gbstr 26 Del rocket 4.2 22:14:07 10° WNW 22:21:25 71° NNE 22:23:48 40° E
Cosmos 1238 Rocket 3.6 22:18:34 10° NNW 22:24:42 71° W 22:25:13 67° SW
Cosmos 1607 4.5 22:26:49 43° ESE 22:26:49 43° ESE 22:32:31 10° NE
Meteor 2-9 Rocket 4.1 22:22:20 10° NNW 22:28:09 83° W 22:28:36 76° SSW
Okean 1 4.3 22:29:36 45° NW 22:29:36 45° NW 22:32:47 10° N
Okean 1-7 4.3 22:31:00 33° NE 22:31:00 33° NE 22:33:50 10° NNE
Cosmos 1818 3.5 22:28:43 10° NW 22:34:12 79° WSW 22:34:12 79° WSW
Cosmos 1656 Rocket 4.3 22:35:34 40° E 22:35:34 40° E 22:39:59 10° NE
Nadezhda 3 Rocket 4.5 22:35:11 43° ESE 22:35:43 44° E 22:41:33 10° NNE
DNEPR-1 R/B 4.4 22:34:46 46° WSW 22:36:18 64° NW 22:41:16 10° NNE
ALOS 2 3.0 22:41:06 61° NNE 22:41:06 61° NNE 22:44:49 10° N
SL-8 Rocket 4.2 22:34:17 10° NNW 22:40:30 60° W 22:41:32 53° SW
Cosmos 2263 4.4 22:43:18 59° E 22:43:18 59° E 22:48:44 10° NNE
Meteor 2-4 Rocket 3.6 22:47:05 81° SSE 22:47:20 86° E 22:53:00 10° NNE
BREEZE-M DEB (TANK) 3.9 22:44:01 10° WNW 22:57:46 87° NNE 22:58:41 63° ESE
SL-08 R/B 4.3 22:51:32 10° N 22:57:47 90° SW 22:58:29 73° S
Cosmos 1975 4.3 22:57:56 10° NNW 23:00:28 32° NW 23:00:28 32° NW
Cosmos 2150 Rocket 4.1 23:04:29 67° ENE 23:04:29 67° ENE 23:09:24 10° NNE
RESURS DK-1 3.4 23:00:20 10° NNW 23:03:31 45° N 23:03:31 45° N
Cosmos 1461 3.9 23:07:22 46° WNW 23:07:35 46° NW 23:12:04 10° NNE
Cosmos 2242 Rocket 4.2 23:09:02 55° NNW 23:09:02 55° NNW 23:12:41 10° N
Cosmos 1833 4.2 23:03:05 10° NNW 23:08:51 72° ENE 23:09:22 67° E
SeaSat 1 3.2 23:04:45 10° NE 23:08:32 41° E 23:08:32 41° E
Meteor 1-12 Rocket 4.2 23:06:26 10° N 23:12:20 74° ENE 23:12:43 71° ESE
Cosmos 2239 Rocket 4.4 23:06:26 10° N 23:12:46 75° E 23:13:34 66° SE
ISS -0.9 23:18:16 15° NE 23:18:16 15° NE 23:19:05 10° NE
USA 215 3.5 23:13:56 25° ESE 23:17:59 67° NNE 23:24:28 10° NW
Cosmos 468 4.5 23:13:29 10° NNW 23:18:27 77° NW 23:18:27 77° NW
Cosmos 494 Rocket 4.0 23:15:05 10° NNW 23:20:07 76° NE 23:20:07 76° NE
Cosmos 1300 Rocket 4.5 23:18:03 10° N 23:21:41 43° NE 23:21:41 43° NE
Okean 2 Rocket 4.2 23:20:16 10° N 23:23:56 38° ENE 23:23:56 38° ENE
ATLAS 2AS CENTAUR R/B 3.9 23:19:03 10° WNW 23:24:29 25° WSW 23:24:29 25° WSW
Nimbus 7 Rocket 4.4 23:20:03 10° N 23:25:54 70° WNW 23:26:37 63° WSW
Cosmos 1867 3.6 23:25:56 72° WNW 23:26:11 73° NW 23:31:41 10° NNE
Cosmos 1125 Rocket 3.5 23:26:49 80° NE 23:26:49 80° NE 23:31:47 10° NNE
Cosmos 44 Rocket 4.2 23:25:17 10° NNW 23:30:22 49° NE 23:31:24 42° E
ATLAS CENTAUR R/B 2.8 23:38:29 32° NNE 23:38:29 32° NNE 23:40:41 10° NNE
Cosmos 1821 Rocket 4.2 23:34:31 10° NNW 23:40:46 57° W 23:41:25 55° WSW
Cosmos 2344 4.4 23:31:31 10° NW 23:40:57 86° NE 23:51:07 19° SE
USA 281 4.3 23:36:59 18° ESE 23:41:24 39° NE 23:47:24 10° NNW
Cosmos 1934 Rocket 3.8 23:35:18 10° N 23:41:28 84° E 23:42:09 71° SSE
Okean 3 4.4 23:50:46 42° NW 23:50:46 42° NW 23:54:03 10° N
USA 81 4.2 23:45:03 10° N 23:50:18 60° E 23:50:37 59° E
Lacrosse 5 2.7 23:54:51 40° E 23:54:51 40° E 23:58:35 10° ENE
